{"data":{"norad_id":65992,"intl_designator":"2025-230U","name":"SDA_1682","alt_names":[],"object_type":"PAYLOAD","status":"ACTIVE","operator":null,"country":"US","launch_date":"2025-10-15","launch_site_code":"AFWTR","launch_vehicle":null,"mission":null,"orbit_class":"UNKNOWN","rcs_meters":null,"size_class":null,"mass_kg":null,"dimensions":null,"purposes":[],"wikipedia_slug":null,"has_3d_model":false,"image_url":null,"decayed_at":null,"tle_current":{"epoch":"2026-05-25T04:30:34.350048Z","epoch_age_seconds":72961,"freshness":"FRESH","line1":"1 65992U 25230U   26145.18789757  .00000219  00000+0  20637-3 0  9995","line2":"2 65992  81.3032 233.6227 0001080  99.6302 260.4973 13.78090539 30596","mean_motion":13.78090539,"eccentricity":0.000108,"inclination_deg":81.3032,"raan_deg":233.6227,"arg_perigee_deg":99.6302,"mean_anomaly_deg":260.4973,"bstar":0.00020637,"rev_number":3059,"period_min":104.49240882569,"perigee_km":969.87348845075,"apogee_km":971.46083014916,"semimajor_km":7348.8041593,"source":"CELESTRAK","updated_at":"2026-05-25T13:38:05.881860Z"}}}